Regional Weather Roundup
Issued by NWS Newport/Morehead, NC

Current Version | Previous Version | Graphics & Text | Print | Product List | Glossary Off
Versions: 1 2 3 4 5 6 7 8 9 10 11 12 13 14 15 16 17 18 19 20 21 22 23 24 25 26 27 28 29 30 31 32 33 34 35 36 37 38 39 40 41 42 43 44 45 46 47 48 49 50

000
ASUS42 KMHX 141722
RWRMHX
WEATHER ROUNDUP FOR EASTERN NORTH CAROLINA
NATIONAL WEATHER SERVICE NEWPORT/MOREHEAD CITY NC
100 PM EDT SUN SEP 14 2014

NOTE: "FAIR" INDICATES FEW OR NO CLOUDS BELOW 12,000 FEET
WITH NO SIGNIFICANT WEATHER AND/OR OBSTRUCTIONS TO VISIBILITY

NCZ015>017-031-032-045>047-102-103-141800-
NORTH COAST

CITY           SKY/WX    TMP DP  RH WIND       PRES   REMARKS
EDENTON        MOSUNNY   75  61  62 NE8       30.23F
ELIZABETH CITY PTSUNNY   72  60  66 NE13      30.24S
KITTY HAWK     CLOUDY    71  61  70 N9        30.21F
MANTEO         CLOUDY    72  62  70 N15G21    30.22F

$$

NCZ045>047-081-094-103-104-141800-
CENTRAL COAST

CITY           SKY/WX    TMP DP  RH WIND       PRES   REMARKS
FRISCO         CLOUDY    74  67  78 NE13G23   30.19F
SWANQUARTER      N/A     75 N/A N/A NE15      30.15F

$$

NCZ095-097-098-100-101-141800-
SOUTHERN COAST

CITY           SKY/WX    TMP DP  RH WIND       PRES   REMARKS
BEAUFORT       PTSUNNY   77  69  76 N16G22    30.18F
CEDAR ISLAND     N/A     75 N/A N/A VRB15G22  30.24S
JACKSONVILLE   CLOUDY    74  64  71 NE8       30.20F
NEWPORT        NOT AVBL
PINEY ISLAND   CLOUDY    77  66  68 NE15      30.19F
WILMINGTON     CLOUDY    74  66  76 N6        30.20F


$$

NCZ011>013-027>030-043-044-078>080-089-090>093-098-141800-
COASTAL PLAIN

CITY           SKY/WX    TMP DP  RH WIND       PRES   REMARKS
AHOSKIE        PTSUNNY   71  58  64 NE5       30.25F
CLINTON        CLOUDY    68  62  78 NE3       30.25S
ELIZABETHTOWN  CLOUDY    69  62  77 CALM      30.22F
GOLDSBORO      CLOUDY    72  64  76 VRB3      30.22S
GREENVILLE     PTSUNNY   75  59  57 E8        30.24F
HAVELOCK       CLOUDY    76  66  71 NE9       30.21F
KENANSVILLE    CLOUDY    68  59  72 N6        30.25R
KINSTON        CLOUDY    72  59  64 NE8       30.24F
NEW BERN       CLOUDY    75  64  69 NE10      30.22F
RICHLANDS      CLOUDY    72  61  68 N7        30.21F
ROANOKE RAPIDS NOT AVBL
ROCKY MOUNT    CLOUDY    73  60  63 NE7       30.25F
WASHINGTON     PTSUNNY   72  62  71 NE9       30.23F
WHITEVILLE     CLOUDY    69  64  82 NE5       30.21F

$$

AMZ130-135-150-152-154-156-158-170-250-252-270-ANZ085-086-088-633-658-670-141800-
MARINE OBSERVATIONS

STATION/POSITION TIME  TEMP    WIND        PRES    WAVE   SWELL
                       AIR SEA DIR/SP/G            HT/PER HT/PER
                 (UTC) (F)     (DEG/KT/KT) (MB)    (FT/S) (FT/S)
CHESAPEAKE LIGHT 1700   67      20/ 13/ 15 1024.8
BUOY 44014       1700   71 79   20/ 17/ 21 1022.5    6/ 7   2/15
DUCK             1700   69 77   10/ 16/ 21 1023.0
2E DUCK          1700                        N/A     6/ 7
OREGON INLET     1700   72 78   10/ 14/ 20 1023.0
BUOY 44095       1700      76                N/A     6/ 7
20E OREGON INLET NOT AVBL
HATTERAS CG      1700   74 80   20/ 17/ 22 1022.5
DIAMOND BUOY     1700   75     350/ 17/ 21 1021.4    4/ 8   2/ 8
CAPE LOOKOUT     1700   76      30/ 17/ 20 1021.7
BEAUFORT LAB     1700   75 81   10/ 13/ 16 1021.7
30 SE NEW RIVER  1700   76 82   40/ 17/ 21 1021.6    4/ 5
5 SE WRIGHTSVILL 1700   72 82   60/ 16/ 17   N/A
BUOY 41002       1650   79 83  260/ 14/ 17 1022.3    3/ 4   2/ 9
BUOY 41004       1700   79 83  140/  2/  2 1021.5    2/ 4   2/10

$$



USA.gov is the U.S. government's official web portal to all federal, state and local government web resources and services.